Location: Pella
(41.4080°N, 92.9160°W)
Time: 14:17:38
(UTC-06:00)

Daily predictions for brighter satellites

Satellite Brightness Start Highest point End
(mag) Time Altitude Azimuth Time Altitude Azimuth Time Altitude Azimuth
Cosmos 2221 2.7 17:41:05 10° N 17:45:29 84° W 17:49:52 10° S
Cosmos 2341 Rocket 4.2 17:40:02 10° N 17:46:19 82° W 17:52:38 10° S
CZ-4 R/B 1.5 17:47:21 10° SSE 17:51:34 77° ENE 17:55:49 10° N
SeaSat 1 3.2 17:46:48 10° SSE 17:51:40 60° WSW 17:56:33 10° NNW
TSX-5 3.3 17:51:57 10° SSW 17:55:05 67° ESE 17:58:37 10° NNE
Cosmos 1346 Rocket 3.6 17:53:19 10° NNE 17:56:44 28° ENE 18:00:06 10° SE
H-2A R/B 4.3 17:54:55 10° ESE 17:57:15 16° ENE 17:59:35 10° NNE
COSMOS 2406 4.1 17:52:22 10° SSE 17:57:16 30° ESE 18:02:10 10° NE
NOSS 3-4 (A) 3.9 17:51:21 10° NNW 17:58:19 62° NE 18:05:47 10° SE
NOSS 3-4 (C) 3.9 17:51:27 10° NNW 17:58:25 61° NE 18:05:53 10° SE
Cosmos 2151 4.3 17:57:57 10° SE 18:01:06 20° E 18:04:17 10° NE
Cosmos 1315 Rocket 2.7 17:58:07 10° S 18:02:01 68° E 18:05:55 10° NNE
Cosmos 1455 3.5 17:59:14 10° NNE 18:02:04 19° ENE 18:04:53 10° ESE
Cosmos 2098 Rocket 4.3 17:58:56 10° N 18:04:03 39° E 18:10:12 10° SSE
OAO 3 Rocket 4.5 18:01:44 10° WSW 18:05:58 35° S 18:10:15 10° ESE
CZ-2C R/B 3.7 18:03:06 10° NNE 18:07:50 85° ESE 18:12:27 10° SSW
Cosmos 2181 Rocket 4.5 18:01:32 10° SSW 18:07:56 68° W 18:14:21 10° N
Cosmos 1408 Rocket 3.6 18:04:14 10° S 18:08:25 56° E 18:12:39 10° NNE
Cosmos 1515 Rocket 4.5 18:05:48 10° NNE 18:09:26 25° ENE 18:13:02 10° SE
Cosmos 1076 Rocket 4.3 18:10:40 10° SSW 18:14:57 56° W 18:19:16 10° N
Cosmos 1626 2.1 18:12:24 10° S 18:16:03 62° E 18:19:44 10° NNE
COSMO-SKYMED 1 2.5 18:15:34 10° NNE 18:19:55 80° E 18:24:15 10° S
Cosmos 44 3.3 18:15:57 10° SW 18:20:13 70° NW 18:24:41 10° NNE
SL-8 Rocket 4.4 18:14:11 10° NNW 18:20:20 69° W 18:26:30 10° S
Cosmos 1500 Rocket 4.4 18:18:09 10° SSE 18:22:02 30° E 18:25:56 10° NNE
Cosmos 371 Rocket 3.9 18:19:52 10° SSE 18:24:12 35° ESE 18:27:38 15° NE
EO 1 Del DPAF 3.4 18:21:11 10° NNE 18:24:56 52° E 18:28:40 10° S
Cosmos 1328 4.1 18:21:04 10° SSW 18:25:03 69° W 18:29:06 10° N
Landsat 4 3.5 18:23:20 10° NNE 18:27:06 79° ESE 18:30:48 10° S
NOAA 12 4.0 18:22:11 10° SSE 18:27:22 71° ENE 18:32:38 10° N
Cosmos 2218 Rocket 4.3 18:23:23 10° NNW 18:29:30 70° W 18:35:35 10° S
Tiangong 1 1.4 18:27:49 10° W 18:30:11 42° SSW 18:31:25 22° SE
NOSS 3 (A) 4.3 18:27:39 10° SSW 18:30:24 87° ESE 18:32:00 24° NE
Cosmos 1656 Rocket 4.0 18:28:45 10° NNW 18:34:13 69° WSW 18:39:42 10° SSE
Cosmos 1743 Rocket 3.6 18:32:43 10° S 18:36:59 56° E 18:41:15 10° NNE
ERS-2 2.1 18:33:50 10° SSE 18:37:26 57° ENE 18:41:04 10° N
Cosmos 2228 Rocket 3.2 18:33:41 10° N 18:38:13 57° E 18:42:43 10° SSE
Cosmos 1328 Rocket 3.4 18:35:29 10° N 18:39:52 80° E 18:44:12 10° S
SL-24 R/B - RUBIN 2 4.5 18:35:58 10° NW 18:40:17 49° WSW 18:44:26 10° SSE
Cosmos 1703 3.2 18:40:31 10° S 18:44:29 89° E 18:48:29 10° N
Thor Agena Rocket 4.2 18:44:12 25° ENE 18:46:17 33° E 18:50:57 10° SSE
TIMED 4.4 18:42:56 10° NNW 18:47:19 75° ENE 18:51:40 10° SSE
ERBS 3.8 18:46:33 10° NNW 18:48:44 24° NNE 18:48:44 24° NNE
Cosmos 1241 Rocket 4.4 18:48:00 10° NNW 18:54:14 87° ENE 19:00:30 10° SSE
Cosmos 909 Rocket 4.0 18:50:33 10° NNW 18:57:22 72° ENE 19:03:35 10° SE
Cosmos 44 Rocket 4.3 18:54:48 10° WSW 18:59:13 40° NW 19:02:51 15° NNE
SPOT 3 Rocket 4.2 19:02:24 10° S 19:07:25 55° W 19:12:30 10° NNW
Cosmos 1821 Rocket 3.8 19:03:04 10° N 19:09:15 74° E 19:15:29 10° SSE
Cosmos 1535 Rocket 4.3 19:04:33 10° N 19:10:40 64° E 19:16:42 10° SSE
Cosmos 1151 Rocket 3.2 19:07:07 10° NNW 19:11:30 73° W 19:15:51 10° S
Cosmos 2058 3.6 19:08:56 10° SSW 19:13:01 54° W 19:17:10 10° N
Cosmos 1980 Rocket 4.3 19:10:34 10° NNE 19:10:53 11° NNE 19:10:53 11° NNE
ALOS 4.2 19:12:16 10° SSW 19:16:23 31° W 19:20:32 10° NNW
Cosmos 332 Rocket 4.3 19:14:43 10° SSW 19:19:32 59° WNW 19:22:48 20° N
USA 81 4.3 19:14:44 10° SSW 19:19:59 69° W 19:25:15 10° N
Nadezhda 3 Rocket 4.4 19:16:20 10° SSW 19:22:36 64° W 19:28:56 10° N
Cosmos 2082 Rocket 4.0 19:18:21 10° SSE 19:19:35 16° SSE 19:19:35 16° SSE
Cosmos 2208 Rocket 4.0 19:21:28 10° SSW 19:26:44 85° WNW 19:28:46 40° NNE
H-2A R/B 4.2 19:27:37 10° SSW 19:31:10 37° W 19:34:47 10° NNW
Lacrosse 5 2.4 19:27:33 10° SSW 19:31:29 45° SSE 19:31:29 45° SSE
Cosmos 2278 4.5 19:27:40 10° NNW 19:31:28 36° NNE 19:31:28 36° NNE
Cosmos 468 Rocket 3.9 19:28:52 10° SSW 19:33:21 66° SSE 19:33:21 66° SSE
Cosmos 1898 Rocket 3.5 19:29:03 10° NNW 19:33:42 63° NNE 19:33:42 63° NNE
Cosmos 1455 4.4 19:34:29 10° NNW 19:37:43 26° W 19:40:56 10° SSW
COSMOS 2406 4.4 19:36:04 10° SW 19:41:24 40° WNW 19:45:15 18° N
CZ-4C R/B 2.6 19:39:29 10° SSW 19:43:03 45° S 19:43:03 45° S
Cosmos 1934 Rocket 4.0 19:38:50 10° N 19:45:14 80° W 19:51:35 10° S
Cosmos 1833 Rocket 4.4 19:42:24 10° S 19:44:07 20° S 19:44:07 20° S
Cosmos 2369 4.3 19:42:22 10° NNW 19:46:19 44° N 19:46:19 44° N
Envisat 4.3 19:54:08 31° NNW 19:54:08 31° NNW 19:56:41 10° NNW
Cosmos 1605 Rocket 4.3 19:45:43 10° N 19:50:11 50° N 19:50:11 50° N
GEOS 3 Rocket 3.7 19:52:23 75° NW 19:52:23 75° NW 19:57:20 10° NW
Cosmos 1697 Rocket 4.4 19:54:11 10° NNW 19:56:00 20° N 19:56:00 20° N
